Lynchburg, VA

8:08 AM EDT on October 15, 2019 (GMT -0400)
Lynchburg Regional-Glenn

Weather History for KLYH - August, 2019

Change the Weather History Date:

Thursday, August 8, 2019

  Actual Average Record
Temperature  
Mean Temperature 78 °F 75 °F  
Max Temperature 90 °F 86 °F 98 °F (1980)
Min Temperature 65 °F 64 °F 53 °F (2002)
Degree Days  
Heating Degree Days 0 0  
Month to date heating degree days 0 0  
Since 1 June heating degree days 2 15  
Since 1 July heating degree days 0 1  
Cooling Degree Days 13 10  
Month to date cooling degree days 94 80  
Year to date cooling degree days 949 694  
Since 1 June cooling degree days 737 612  
Growing Degree Days 27 (Base 50)    
Moisture  
Dew Point 63 °F    
Average Humidity 69    
Maximum Humidity 100    
Minimum Humidity 37    
Precipitation  
Precipitation 0.00 in 0.11 in 5.29 in (1998)
Month to date precipitation 2.12 0.92  
Year to date precipitation 26.46 25.59  
Snow  
Snow 0.00 in - - ()
Month to date snowfall 0.0  
Since 1 June snowfall 0.0  
Since 1 July snowfall 0.0  
Snow Depth 0.00 in    
Sea Level Pressure  
Sea Level Pressure 29.84 in    
Wind  
Wind Speed 4 mph (WSW)    
Max Wind Speed 9 mph    
Max Gust Speed -    
Visibility 10 miles    
Events      
T = Trace of Precipitation, MM = Missing Value Source: NWS Daily Summary

Daily Weather History Graph

Daily Weather History Graph

Search for Another Location

Airport or City:

Astronomy

Aug. 08, 2019 Rise Set
Actual Time 6:26 AM EDT 8:17 PM EDT
Civil Twilight 5:58 AM EDT 8:45 PM EDT
Nautical Twilight 5:24 AM EDT 9:19 PM EDT
Astronomical Twilight 4:47 AM EDT 9:56 PM EDT
Moon 2:51 PM EDT (8/8) 12:47 AM EDT (8/8)
Length of Visible Light 14h 47m
Length of Day
13h 50m
First Quarter, 60% of the Moon is Illuminated
Aug 8
First Quarter
Aug 15
Full
Aug 23
Last Quarter
Aug 30
New
Sep 5
First Quarter

Hourly Weather History & Observations

Time (EDT) Temp. Heat Index Dew Point Humidity Pressure Visibility Wind Dir Wind Speed Gust Speed Precip Events Conditions
12:54 AM 69.1 °F - 66.0 °F 90% 29.83 in 10.0 mi SSW 3.5 mph - N/A   Partly Cloudy
1:54 AM 69.1 °F - 66.0 °F 90% 29.83 in 10.0 mi Calm Calm - N/A   Mostly Cloudy
2:54 AM 70.0 °F - 66.9 °F 90% 29.82 in 10.0 mi SSW 3.5 mph - N/A   Overcast
3:54 AM 68.0 °F - 66.0 °F 93% 29.81 in 10.0 mi Calm Calm - N/A   Mostly Cloudy
4:54 AM 66.0 °F - 64.9 °F 96% 29.81 in 10.0 mi Calm Calm - N/A   Partly Cloudy
5:54 AM 66.0 °F - 64.9 °F 96% 29.82 in 10.0 mi West 3.5 mph - N/A   Partly Cloudy
6:54 AM 64.9 °F - 64.9 °F 100% 29.83 in 6.0 mi Calm Calm - N/A   Clear
7:54 AM 70.0 °F - 68.0 °F 93% 29.85 in 10.0 mi South 3.5 mph - N/A   Clear
8:54 AM 79.0 °F - 66.9 °F 66% 29.85 in 10.0 mi Variable 3.5 mph - N/A   Clear
9:54 AM 81.0 °F 82.7 °F 64.9 °F 58% 29.85 in 10.0 mi Variable 3.5 mph - N/A   Clear
11:54 AM 84.9 °F 84.8 °F 60.1 °F 43% 29.86 in 10.0 mi NW 9.2 mph - N/A   Clear
12:54 PM 86.0 °F 85.7 °F 60.1 °F 41% 29.85 in 10.0 mi WNW 8.1 mph - N/A   Clear
1:54 PM 87.1 °F 87.5 °F 62.1 °F 43% 29.85 in 10.0 mi WNW 8.1 mph - N/A   Clear
2:54 PM 88.0 °F 87.9 °F 61.0 °F 40% 29.83 in 10.0 mi Variable 6.9 mph - N/A   Clear
3:54 PM 90.0 °F 90.3 °F 62.1 °F 39% 29.82 in 10.0 mi Variable 4.6 mph - N/A   Clear
4:54 PM 89.1 °F 88.2 °F 59.0 °F 36% 29.81 in 10.0 mi Variable 4.6 mph - N/A   Clear
5:54 PM 88.0 °F 87.1 °F 59.0 °F 37% 29.81 in 10.0 mi WSW 8.1 mph - N/A   Clear
6:54 PM 87.1 °F 86.7 °F 60.1 °F 40% 29.83 in 10.0 mi West 3.5 mph - N/A   Clear
7:54 PM 79.0 °F - 64.0 °F 60% 29.84 in 10.0 mi Calm Calm - N/A   Clear
8:54 PM 75.0 °F - 64.0 °F 69% 29.84 in 10.0 mi SW 4.6 mph - N/A   Clear
9:54 PM 73.9 °F - 64.0 °F 71% 29.85 in 10.0 mi West 4.6 mph - N/A   Clear
10:54 PM 75.9 °F - 63.0 °F 64% 29.86 in 10.0 mi West 3.5 mph - N/A   Clear
11:54 PM 73.0 °F - 64.0 °F 73% 29.86 in 10.0 mi Calm Calm - N/A   Clear